GW5123 Weather Reports


Display with metric or nautical units.
time (UTC)temp
F
wind
direction
speed
MPH
gust
MPH
rain 1hr
in
rain 24hr
in
rain mn
in
humidity
%
barometer
mb
20260508064515 33 296 0.0 0.0 0.00 0.00 0.00 95 1014.5
20260508064013 33 309 0.0 0.0 0.00 0.00 0.00 95 1014.4
20260508063510 33 273 0.0 0.0 0.00 0.00 0.00 94 1014.5
20260508063008 34 298 0.0 0.0 0.00 0.00 0.00 94 1014.5
20260508062505 34 279 0.0 0.0 0.00 0.00 0.00 94 1014.6
20260508062001 35 284 0.0 0.0 0.00 0.00 0.00 94 1014.5
20260508061500 34 304 0.0 0.0 0.00 0.00 0.00 94 1014.4
20260508060955 34 291 0.0 0.0 0.00 0.00 0.00 95 1014.4
20260508060453 34 260 0.0 0.0 0.00 0.00 0.00 94 1014.4
20260508055949 34 276 0.0 0.0 0.00 0.03 0.03 93 1014.5
20260508055446 34 253 0.0 0.0 0.00 0.03 0.03 92 1014.2
20260508054942 35 253 0.0 0.0 0.00 0.03 0.03 90 1014.5
20260508054439 35 326 0.0 0.0 0.00 0.03 0.03 90 1014.3
20260508053936 35 323 0.0 0.0 0.00 0.03 0.03 89 1014.2
20260508053433 35 296 0.0 0.0 0.00 0.03 0.03 89 1014.4
20260508052931 35 309 0.0 0.0 0.00 0.03 0.03 88 1014.4
20260508052428 36 312 0.0 0.0 0.00 0.03 0.03 87 1014.4
20260508051924 36 286 0.0 0.0 0.00 0.03 0.03 85 1014.6
20260508051420 37 305 0.0 0.0 0.00 0.03 0.03 84 1014.4
20260508050916 37 276 0.0 0.0 0.00 0.03 0.03 84 1014.4
20260508050413 37 265 0.0 0.0 0.00 0.03 0.03 83 1014.6
20260508045909 37 265 0.0 0.0 0.00 0.03 0.03 83 1014.6
20260508045407 37 269 0.0 0.0 0.00 0.03 0.03 81 1014.5
20260508044904 38 261 0.0 0.0 0.00 0.03 0.03 82 1014.6
20260508044401 37 291 0.0 0.0 0.00 0.03 0.03 81 1014.6
20260508043856 38 268 0.0 0.0 0.00 0.03 0.03 83 1014.4
20260508043354 38 282 0.0 0.0 0.00 0.03 0.03 80 1014.5
20260508042850 38 289 0.0 0.0 0.00 0.03 0.03 80 1014.6
20260508042348 38 284 0.0 0.0 0.00 0.03 0.03 80 1014.6
20260508041844 38 279 0.0 0.0 0.00 0.03 0.03 80 1014.5
20260508041341 38 279 0.0 0.0 0.00 0.03 0.03 78 1014.5
20260508040837 38 266 0.0 0.0 0.00 0.03 0.03 77 1014.0
20260508040335 38 265 0.0 0.0 0.00 0.03 0.03 82 1014.3
20260508035832 38 278 0.0 0.0 0.00 0.03 0.03 78 1014.3
20260508035329 39 259 0.0 0.0 0.00 0.03 0.03 80 1014.2
20260508034826 39 255 0.0 0.0 0.00 0.03 0.03 78 1014.2
20260508034323 39 260 0.0 0.0 0.00 0.03 0.03 78 1014.0
20260508033820 39 252 0.0 0.0 0.00 0.03 0.03 78 1013.9
20260508033319 39 257 0.0 0.0 0.00 0.03 0.03 79 1013.8
20260508032816 39 248 0.0 0.0 0.00 0.03 0.03 80 1013.9
20260508032313 39 252 0.0 0.0 0.00 0.03 0.03 77 1013.8
20260508031809 39 252 0.0 0.0 0.00 0.03 0.03 80 1013.7
20260508031306 39 356 0.0 0.0 0.00 0.03 0.03 82 1013.9
20260508030802 39 262 0.0 0.0 0.00 0.03 0.03 82 1013.7
20260508030300 39 249 0.0 0.0 0.00 0.03 0.03 85 1013.6
20260508025756 39 253 0.0 0.0 0.00 0.03 0.03 83 1013.7
20260508025254 39 253 0.0 0.0 0.00 0.03 0.03 83 1013.6
20260508024749 39 254 0.0 0.0 0.00 0.03 0.03 85 1013.4
20260508024246 39 254 0.0 0.0 0.00 0.03 0.03 85 1013.4
20260508023743 39 229 0.0 0.0 0.00 0.03 0.03 84 1013.4
20260508023241 40 290 0.0 0.0 0.00 0.03 0.03 85 1013.4
20260508022736 40 266 0.0 0.0 0.00 0.03 0.03 83 1013.3
20260508022233 41 247 0.0 0.0 0.00 0.03 0.03 79 1013.3
20260508021730 40 247 0.0 0.0 0.00 0.03 0.03 79 1013.3
20260508021225 41 271 0.0 0.0 0.00 0.03 0.03 82 1013.1
20260508020723 41 256 0.0 0.0 0.00 0.03 0.03 77 1013.3
20260508020220 42 256 0.0 0.0 0.00 0.03 0.03 78 1013.2
20260508015717 42 256 0.0 0.0 0.00 0.03 0.03 75 1013.2
20260508015214 42 256 0.0 0.0 0.00 0.03 0.03 75 1012.9
20260508014711 42 256 0.0 0.0 0.00 0.03 0.03 78 1013.0
20260508014208 43 256 0.0 0.0 0.00 0.03 0.03 73 1013.0
20260508013703 43 256 0.0 0.0 0.00 0.03 0.03 73 1012.9
20260508013200 43 256 0.0 0.0 0.00 0.03 0.03 73 1012.8
20260508012658 43 256 0.0 0.0 0.00 0.03 0.03 71 1012.7
20260508012154 44 256 0.0 0.0 0.00 0.03 0.03 74 1012.5
20260508011653 44 256 0.0 0.0 0.00 0.03 0.03 71 1012.7
20260508011150 44 256 0.0 0.0 0.00 0.03 0.03 69 1012.5
20260508010647 45 256 0.0 0.0 0.00 0.03 0.03 69 1012.3
20260508010145 45 256 0.0 0.0 0.00 0.03 0.03 72 1012.2
20260508005641 47 303 0.0 0.0 0.00 0.03 0.03 67 1012.5
20260508005138 47 350 0.0 0.0 0.00 0.03 0.03 63 1012.4
20260508004633 47 20 0.0 0.0 0.00 0.03 0.03 63 1012.1
20260508004130 48 18 0.0 0.0 0.00 0.03 0.03 62 1012.2
20260508003627 49 64 0.0 1.0 0.00 0.03 0.03 57 1012.3
20260508003125 50 94 0.0 4.0 0.00 0.03 0.03 56 1012.2
20260508002621 50 125 2.0 3.0 0.00 0.03 0.03 55 1012.0
20260508002119 50 118 2.0 2.0 0.00 0.03 0.03 55 1011.8
20260508001614 50 183 1.0 3.0 0.00 0.03 0.03 55 1011.9
20260508001110 51 95 4.0 7.0 0.00 0.03 0.03 54 1011.9
20260508000606 51 75 1.0 2.0 0.00 0.03 0.03 54 1011.8
20260508000104 51 127 5.0 13.0 0.00 0.03 0.03 52 1011.9
20260507235600 51 114 4.0 6.0 0.00 0.03 0.03 53 1011.8
20260507235058 52 93 1.0 4.0 0.00 0.03 0.03 54 1011.8
20260507234554 52 98 2.0 7.0 0.00 0.03 0.03 54 1011.7
20260507234050 52 62 2.0 3.0 0.00 0.03 0.03 53 1011.4
20260507233547 52 100 1.0 3.0 0.00 0.03 0.03 57 1011.7
20260507233046 52 153 2.0 3.0 0.00 0.03 0.03 52 1011.8
20260507232542 52 56 2.0 4.0 0.00 0.03 0.03 52 1011.6
20260507232039 53 108 5.0 8.0 0.00 0.03 0.03 52 1011.6
20260507231536 53 102 2.0 4.0 0.00 0.03 0.03 54 1011.4
20260507231033 53 120 3.0 4.0 0.00 0.03 0.03 54 1011.5
20260507230530 53 107 5.0 7.0 0.00 0.03 0.03 50 1011.3
20260507230026 53 76 7.0 10.0 0.00 0.03 0.03 54 1011.4
20260507225521 53 82 3.0 6.0 0.00 0.03 0.03 54 1011.3
20260507225018 54 106 6.0 10.0 0.00 0.03 0.03 52 1011.3
20260507224513 54 67 3.0 7.0 0.00 0.03 0.03 54 1011.4
20260507224010 55 97 7.0 9.0 0.00 0.03 0.03 51 1011.2
20260507223506 55 91 6.0 7.0 0.00 0.03 0.03 50 1011.3
20260507223004 55 85 7.0 9.0 0.00 0.03 0.03 51 1011.2
20260507222501 55 114 4.0 8.0 0.00 0.03 0.03 52 1011.3
20260507221957 54 116 6.0 8.0 0.00 0.03 0.03 52 1011.0
20260507221453 55 98 7.0 9.0 0.00 0.03 0.03 53 1011.0
20260507220950 54 119 5.0 7.0 0.00 0.03 0.03 53 1011.3
20260507220448 56 106 7.0 10.0 0.00 0.03 0.03 50 1010.9
20260507215944 54 122 2.0 10.0 0.00 0.03 0.03 55 1010.9
20260507215441 54 100 6.0 11.0 0.00 0.03 0.03 53 1010.7
20260507214938 55 89 4.0 9.0 0.00 0.03 0.03 53 1010.8
20260507214431 56 101 4.0 6.0 0.00 0.03 0.03 52 1010.6
20260507213926 54 110 2.0 4.0 0.00 0.03 0.03 56 1010.6
20260507213422 54 96 10.0 14.0 0.00 0.03 0.03 54 1010.4
20260507212919 55 101 3.0 4.0 0.00 0.03 0.03 56 1010.3
20260507212415 54 119 5.0 8.0 0.00 0.03 0.03 54 1010.4
20260507211912 55 103 5.0 11.0 0.00 0.03 0.03 54 1010.3
20260507211408 56 135 5.0 8.0 0.00 0.03 0.03 53 1010.2
20260507210905 55 118 7.0 8.0 0.00 0.03 0.03 55 1010.2
20260507210402 55 122 7.0 11.0 0.00 0.03 0.03 54 1010.3
20260507205858 57 57 4.0 7.0 0.00 0.03 0.03 52 1010.1
20260507205355 56 121 9.0 11.0 0.00 0.03 0.03 55 1010.4
20260507204852 55 92 2.0 8.0 0.00 0.03 0.03 55 1010.3
20260507204349 56 145 3.0 7.0 0.00 0.03 0.03 53 1010.3
20260507203847 56 101 3.0 9.0 0.00 0.03 0.03 57 1010.3
20260507203344 56 97 4.0 6.0 0.00 0.03 0.03 56 1010.3
20260507202840 56 153 3.0 7.0 0.00 0.03 0.03 54 1010.2
20260507202337 57 16 3.0 7.0 0.00 0.03 0.03 54 1010.4
20260507201832 56 105 4.0 16.0 0.00 0.03 0.03 56 1010.3
20260507201328 55 119 3.0 11.0 0.00 0.03 0.03 58 1010.6
20260507200825 56 128 8.0 11.0 0.00 0.03 0.03 57 1010.4
20260507200321 54 94 6.0 8.0 0.00 0.03 0.03 61 1010.4
20260507195817 54 137 5.0 9.0 0.00 0.03 0.03 61 1010.7
20260507195314 53 126 3.0 8.0 0.00 0.03 0.03 62 1010.7
20260507194812 53 155 5.0 7.0 0.00 0.03 0.03 63 1010.8
20260507194308 54 111 5.0 9.0 0.00 0.03 0.03 62 1010.5
20260507193804 53 104 2.0 7.0 0.00 0.03 0.03 63 1010.7
20260507193301 55 110 4.0 7.0 0.00 0.03 0.03 61 1010.9
20260507192757 57 98 2.0 7.0 0.00 0.03 0.03 60 1010.8
20260507192254 56 9 5.0 8.0 0.00 0.03 0.03 55 1010.8
20260507191750 56 103 6.0 9.0 0.00 0.03 0.03 58 1011.2
20260507191247 54 358 3.0 8.0 0.00 0.03 0.03 64 1010.8
20260507190744 55 104 6.0 9.0 0.00 0.03 0.03 59 1011.0
20260507190242 53 120 5.0 13.0 0.00 0.03 0.03 64 1010.7
20260507185741 53 94 3.0 4.0 0.00 0.03 0.03 62 1010.8
20260507185237 53 93 1.0 2.0 0.00 0.03 0.03 62 1011.0
20260507184735 53 92 3.0 7.0 0.00 0.03 0.03 61 1011.0
20260507184233 55 104 3.0 7.0 0.00 0.03 0.03 62 1010.8
20260507183729 55 19 9.0 10.0 0.00 0.03 0.03 59 1010.9
20260507183226 53 66 2.0 8.0 0.00 0.03 0.03 60 1011.0
20260507182723 52 131 2.0 3.0 0.00 0.03 0.03 66 1011.2
20260507182218 52 109 9.0 11.0 0.00 0.03 0.03 63 1011.3
20260507181715 54 130 4.0 9.0 0.00 0.03 0.03 61 1011.0
20260507181212 53 128 6.0 11.0 0.00 0.03 0.03 63 1011.0
20260507180709 51 107 4.0 8.0 0.00 0.03 0.03 63 1011.3
20260507180205 51 104 8.0 8.0 0.00 0.03 0.03 63 1011.3
20260507175700 52 116 6.0 8.0 0.00 0.03 0.03 62 1011.2
20260507175153 52 310 0.0 0.0 0.00 0.03 0.03 62 1011.3
20260507174650 53 75 4.0 7.0 0.00 0.03 0.03 64 1011.3
20260507174148 54 142 0.0 3.0 0.00 0.03 0.03 63 1011.0
20260507173645 53 83 3.0 6.0 0.00 0.03 0.03 62 1011.2
20260507173142 52 111 7.0 9.0 0.00 0.03 0.03 61 1011.5
20260507172638 53 112 1.0 6.0 0.00 0.03 0.03 59 1011.4
20260507172135 53 118 9.0 11.0 0.00 0.03 0.03 60 1011.5
20260507171635 53 53 4.0 11.0 0.00 0.03 0.03 65 1011.5
20260507171133 52 28 3.0 4.0 0.00 0.03 0.03 66 1011.7
20260507170630 51 130 8.0 10.0 0.00 0.03 0.03 63 1011.8
20260507170127 50 106 6.0 7.0 0.00 0.03 0.03 65 1011.8
20260507165622 51 124 4.0 10.0 0.00 0.03 0.03 65 1012.0
20260507165119 51 156 4.0 7.0 0.00 0.03 0.03 67 1011.9
20260507164614 50 110 5.0 11.0 0.00 0.03 0.03 63 1011.9
20260507164111 51 86 3.0 6.0 0.00 0.03 0.03 66 1011.9
20260507163609 51 86 3.0 6.0 0.00 0.03 0.03 66 1011.9
20260507163108 52 126 6.0 9.0 0.00 0.03 0.03 63 1011.9
20260507162607 51 118 4.0 7.0 0.00 0.03 0.03 64 1011.9
20260507162104 51 125 4.0 13.0 0.00 0.03 0.03 62 1012.0
20260507161600 52 141 2.0 4.0 0.00 0.03 0.03 67 1011.9
20260507161057 53 135 4.0 4.0 0.00 0.03 0.03 67 1011.9
20260507160554 51 109 2.0 6.0 0.00 0.03 0.03 66 1011.8
20260507160050 53 113 4.0 8.0 0.00 0.03 0.03 66 1012.0
20260507155545 51 114 3.0 8.0 0.00 0.03 0.03 68 1012.1
20260507155043 51 101 2.0 4.0 0.00 0.03 0.03 67 1011.9
20260507154539 51 117 6.0 8.0 0.00 0.03 0.03 65 1012.1
20260507154037 52 98 5.0 8.0 0.00 0.03 0.03 64 1012.1
20260507153533 51 94 2.0 4.0 0.00 0.03 0.03 67 1012.2
20260507153030 51 105 2.0 4.0 0.00 0.03 0.03 68 1012.1
20260507152525 51 96 4.0 6.0 0.00 0.03 0.03 66 1012.0
20260507152022 50 84 2.0 8.0 0.00 0.03 0.03 67 1012.1
20260507151518 51 231 3.0 9.0 0.00 0.03 0.03 68 1012.2
20260507151015 51 147 2.0 4.0 0.00 0.03 0.03 69 1012.3
20260507150512 51 100 3.0 6.0 0.00 0.03 0.03 69 1012.2
20260507150009 49 175 3.0 6.0 0.00 0.03 0.03 72 1012.4
20260507145504 50 171 2.0 6.0 0.00 0.03 0.03 68 1012.2
20260507145001 48 142 2.0 3.0 0.00 0.03 0.03 74 1012.3
20260507144458 48 92 4.0 7.0 0.00 0.03 0.03 68 1012.5
20260507143955 47 106 2.0 6.0 0.00 0.03 0.03 70 1012.7
20260507143453 48 111 4.0 7.0 0.00 0.03 0.03 73 1012.4
20260507142949 48 111 5.0 8.0 0.00 0.03 0.03 74 1012.7
20260507142445 47 116 1.0 6.0 0.00 0.03 0.03 76 1012.5
20260507141943 47 120 3.0 3.0 0.00 0.03 0.03 82 1012.5
20260507141438 47 97 1.0 2.0 0.00 0.03 0.03 81 1012.9
20260507140935 46 113 1.0 3.0 0.00 0.03 0.03 84 1012.8
20260507140432 46 88 2.0 3.0 0.00 0.03 0.03 84 1012.9
20260507135930 46 236 2.0 3.0 0.00 0.03 0.03 87 1013.1
20260507135426 46 162 0.0 3.0 0.00 0.03 0.03 86 1013.1
20260507134924 46 129 2.0 2.0 0.00 0.03 0.03 89 1013.2
20260507134420 46 126 1.0 2.0 0.00 0.03 0.03 90 1013.0
20260507133916 45 140 0.0 3.0 0.00 0.03 0.03 91 1013.1
20260507133412 45 117 1.0 3.0 0.00 0.03 0.03 91 1013.2
20260507132911 45 146 1.0 3.0 0.00 0.03 0.03 91 1012.9
20260507132407 46 187 0.0 2.0 0.00 0.03 0.03 94 1013.0
20260507131905 45 116 1.0 2.0 0.00 0.03 0.03 93 1013.0
20260507131400 45 115 2.0 2.0 0.00 0.03 0.03 95 1013.1
20260507130857 45 101 1.0 1.0 0.00 0.03 0.03 94 1012.9
20260507130354 45 121 0.0 2.0 0.00 0.03 0.03 97 1013.1
20260507125853 44 195 0.0 0.0 0.00 0.03 0.03 98 1013.2
20260507125350 44 173 0.0 1.0 0.00 0.03 0.03 98 1013.1
20260507124848 44 181 0.0 0.0 0.00 0.03 0.03 99 1013.2
20260507124343 44 145 2.0 3.0 0.00 0.03 0.03 99 1013.1
20260507123843 44 136 0.0 0.0 0.00 0.03 0.03 99 1013.1
20260507123339 44 134 0.0 3.0 0.00 0.03 0.03 99 1013.1
20260507122835 44 155 0.0 1.0 0.00 0.03 0.03 99 1013.1
20260507122331 44 126 2.0 3.0 0.00 0.03 0.03 99 1013.3
20260507121827 44 124 1.0 2.0 0.00 0.03 0.03 99 1013.3
20260507121323 44 134 1.0 3.0 0.00 0.03 0.03 99 1013.0
20260507120820 43 112 2.0 3.0 0.00 0.03 0.03 99 1013.2
20260507120316 44 106 0.0 0.0 0.00 0.03 0.03 99 1013.1
20260507115812 44 155 0.0 0.0 0.00 0.03 0.03 99 1013.0
20260507115308 44 111 0.0 1.0 0.00 0.03 0.03 99 1013.0
20260507114804 44 167 0.0 0.0 0.00 0.03 0.03 99 1013.3
20260507114301 43 180 0.0 0.0 0.00 0.03 0.03 99 1013.0
20260507113759 43 179 0.0 0.0 0.00 0.03 0.03 99 1012.9
20260507113255 43 179 0.0 0.0 0.00 0.03 0.03 99 1013.0
20260507112753 43 182 0.0 0.0 0.00 0.03 0.03 99 1012.7
20260507112250 43 189 0.0 0.0 0.00 0.03 0.03 99 1012.8
20260507111748 43 181 0.0 0.0 0.00 0.03 0.03 99 1012.7
20260507111244 43 181 0.0 0.0 0.00 0.03 0.03 99 1012.5
20260507110740 43 181 0.0 0.0 0.00 0.03 0.03 99 1012.4
20260507110237 43 184 0.0 0.0 0.00 0.03 0.03 99 1012.4
20260507105734 43 184 0.0 0.0 0.00 0.03 0.03 99 1012.3
20260507105230 43 189 0.0 0.0 0.00 0.03 0.03 99 1012.2
20260507104727 43 190 0.0 0.0 0.00 0.03 0.03 99 1012.1
20260507104224 43 206 0.0 0.0 0.00 0.03 0.03 99 1012.0
20260507103720 43 181 0.0 0.0 0.00 0.03 0.03 99 1012.3
20260507103216 43 177 0.0 1.0 0.00 0.03 0.03 99 1012.2
20260507102713 43 192 0.0 0.0 0.00 0.03 0.03 99 1012.0
20260507102209 43 192 0.0 0.0 0.00 0.03 0.03 99 1012.0
20260507101705 43 142 0.0 0.0 0.00 0.03 0.03 99 1012.2
20260507101201 43 141 0.0 0.0 0.00 0.03 0.03 99 1012.2
20260507100658 43 147 0.0 0.0 0.00 0.03 0.03 99 1012.4
20260507100157 43 154 0.0 0.0 0.00 0.03 0.03 99 1012.2
20260507095654 43 154 0.0 0.0 0.00 0.03 0.03 99 1012.1
20260507095151 43 154 0.0 0.0 0.00 0.03 0.03 99 1012.2
20260507094647 43 147 0.0 0.0 0.00 0.03 0.03 99 1012.1
20260507094144 43 135 0.0 0.0 0.00 0.03 0.03 99 1012.2
20260507093641 43 179 0.0 0.0 0.00 0.03 0.03 99 1012.3
20260507093141 43 227 0.0 1.0 0.00 0.03 0.03 99 1012.3
20260507092636 43 219 0.0 0.0 0.00 0.03 0.03 99 1012.3
20260507092133 43 191 0.0 0.0 0.00 0.03 0.03 99 1012.0
20260507091629 43 194 0.0 0.0 0.00 0.03 0.03 99 1011.9
20260507091125 43 148 0.0 0.0 0.00 0.03 0.03 99 1012.0
20260507090621 43 149 1.0 2.0 0.00 0.03 0.03 99 1012.2
20260507090119 43 149 0.0 1.0 0.00 0.03 0.03 99 1012.0
20260507085616 43 126 1.0 3.0 0.00 0.03 0.03 99 1011.9
20260507085112 43 120 4.0 4.0 0.00 0.03 0.03 99 1012.0
20260507084609 43 121 2.0 6.0 0.00 0.03 0.03 99 1012.0
20260507084106 43 135 2.0 4.0 0.00 0.03 0.03 99 1012.2
20260507083602 43 122 4.0 7.0 0.00 0.03 0.03 99 1012.2
20260507083100 44 140 4.0 6.0 0.00 0.03 0.03 99 1012.2
20260507082555 44 129 3.0 8.0 0.00 0.03 0.03 99 1012.2
20260507082052 45 144 3.0 3.0 0.00 0.03 0.03 99 1012.1
20260507081548 45 122 2.0 3.0 0.00 0.03 0.03 99 1012.2
20260507081045 45 116 2.0 4.0 0.00 0.03 0.03 99 1011.9
20260507080541 45 124 4.0 7.0 0.00 0.03 0.03 99 1011.9
20260507080038 45 146 3.0 7.0 0.00 0.03 0.03 99 1011.8
20260507075533 46 111 6.0 7.0 0.00 0.03 0.03 99 1011.8
20260507075030 46 105 4.0 6.0 0.00 0.03 0.03 99 1011.7
20260507074526 46 106 1.0 6.0 0.00 0.03 0.03 99 1012.1
20260507074025 46 110 1.0 2.0 0.05 0.03 0.03 99 1011.9
20260507073521 46 105 0.0 0.0 0.05 0.03 0.03 99 1012.3
20260507073017 46 138 0.0 0.0 0.00 0.02 0.02 99 1012.0
20260507072515 46 138 0.0 0.0 0.00 0.02 0.02 99 1012.2
20260507072012 46 153 0.0 1.0 0.00 0.02 0.02 99 1012.1
20260507071509 46 124 2.0 2.0 0.00 0.02 0.02 99 1012.1
20260507071006 47 106 2.0 2.0 0.00 0.02 0.02 99 1012.1
20260507070503 47 113 2.0 3.0 0.00 0.02 0.02 99 1012.1
20260507070000 47 156 0.0 1.0 0.00 0.02 0.02 99 1012.1
20260507065456 47 116 2.0 2.0 0.00 0.02 0.02 99 1012.0
20260507064953 47 110 2.0 4.0 0.00 0.02 0.02 99 1011.9